Regional Weather Roundup
Issued by NWS Midland/Odessa, TX

Skip options and go directly to product.
Home | Oldest Version | Previous Version | Current Version | All | Text Only | Save Text | Print | Product List | Glossary Off

Skip product version selection by date and time.   

254
ASUS44 KMAF 210410
RWRMAF
MIDLAND AREA WEATHER ROUNDUP
NATIONAL WEATHER SERVICE MIDLAND TX
1000 PM CST FRI JAN 20 2017

...IN SOUTHWEST TEXAS AND SOUTHEAST NEW MEXICO...

CITY           SKY/WX    TMP DP  RH WIND       PRES   REMARKS
ALPINE         MOCLDY    50  17  26 CALM      29.76F
ANDREWS        FAIR      45  32  60 CALM      29.66F
ARTESIA        PTCLDY    46  34  61 S13       29.63F
BIG SPRING     PTCLDY    49  34  56 S8        29.69S
CARLSBAD       CLEAR     54  30  40 SW8       29.64F
DRYDEN           N/A     51  32  48 SW3       29.65F
FORT STOCKTON  CLEAR     52  23  32 S10       29.66F
GUAD PASS      CLOUDY    46  26  45 SW29G37   29.67S WCI  37
HOBBS          NOT AVBL
MARFA          CLOUDY    38  23  55 NE3       29.74F
MIDLAND AIRPK  CLEAR     56  30  37 W5        29.68S
MIDLAND INTL   PTCLDY    50  34  54 CALM      29.67S
ODESSA         PTCLDY    53  29  39 W3        29.67F
PECOS          CLEAR     46  32  58 CALM      29.67S
PRESIDIO       FAIR      54  22  28 NW5       29.67R
SEMINOLE       PTCLDY    46  32  56 CALM      29.65F
SNYDER         CLEAR     50  33  52 SW5       29.66F
WINK           CLEAR     47  33  58 W5        29.64F
$$
...OTHER STATIONS IN TEXAS...

CITY           SKY/WX    TMP DP  RH WIND       PRES   REMARKS
ABILENE        CLEAR     49  36  61 S8        29.68R
AMARILLO       PTCLDY    50  28  42 W22G30    29.58S
AUSTIN         PTCLDY    57  51  80 SW3       29.69S
BROWNSVILLE    CLEAR     65  65 100 S3        29.70S FOG
CORPUS CHRISTI FOG       66  66 100 CALM      29.70F VSB 1
DALLAS FTW     PTCLDY    58  43  57 S9        29.64R
DEL RIO        CLEAR     61  46  57 E7        29.64F
EL PASO        CLOUDY    53  30  41 SW14      29.69R
HOUSTON INT    LGT RAIN  64  61  90 SE8       29.68F
LUBBOCK        PTCLDY    45  32  60 SW8       29.64S
SAN ANGELO     CLEAR     48  34  58 SW9       29.67R
SAN ANTONIO    PTCLDY    57  51  80 N5        29.71F
WACO           CLEAR     54  51  90 S7        29.67R
WICHITA FALLS  NOT AVBL
$$
...OTHER LOCATIONS IN NEW MEXICO...

CITY           SKY/WX    TMP DP  RH WIND       PRES   REMARKS
ALAMAGORDO     CLOUDY    48  32  53 S8        29.69S
ALBUQUERQUE    LGT RAIN  36  36 100 CALM      29.64S
CANNON AFB     CLEAR     34  33  96 SW9       29.62S WCI  27
CLOVIS         CLEAR     30  25  80 S8        29.63R WCI  23
HOLLOMAN AFB   CLOUDY    49  34  56 CALM      29.72R
ROSWELL        PTCLDY    41  32  70 S3        29.61F
RUIDOSO        CLOUDY    37  27  65 W17G32    29.66F WCI  28
SANTA FE       LGT SNOW  31  30  96 E3        29.61F FOG
TRUTH OR CONSE MOCLDY    44  33  65 S15       29.62S WCI  37
TUCUMCARI      PTCLDY    45  30  55 W15       29.57F WCI  38
$$

  • National Weather Service
  • Southern Region Headquarters
  • 819 Taylor Street, Room 10A06
  • Fort Worth, TX 76102
  • Page Author: NWS Fort Worth
  • Web Master: SR-SRH.Webmaster@noaa.gov
  •  
  • Page last modified: 30-Sep-2016 6:36 PM UTC
USA.gov is the U.S. government's official web portal to all federal, state and local government web resources and services.